Location: Norton
(51.3000°N, 0.8167°E)
Time: 14:07:23
(UTC+00:00)

COSMOS 2428 - Pass Details

Date: 03 March 2021
Orbit: 846 x 857 km, 70.9° (Epoch: 11 April)

Event Time Altitude Azimuth Distance (km) Brightness Sun altitude
Rises 21:01:12 0° 220° (SW) 3,397 5.9 -30.9°
Reaches altitude 10° 21:03:40 10° 223° (SW) 2,466 5.2 -31.2°
Enters shadow 21:07:11 38° 240° (WSW) 1,275 3.7 -31.7°
Exits shadow 21:13:54 16° 24° (NNE) 2,105 4.8 -32.5°
Drops below altitude 10° 21:14:57 10° 26° (NNE) 2,487 5.2 -32.6°
Sets 21:17:27 0° 30° (NNE) 3,428 5.9 -33.0°
